CAPE
0 0 0 0 0 10 13 2 38 93 132 140 170 118 110 94 59 46 158 240 213 1355 1107 1128 1804 2006 1834 1726 1773 1646 1678 1660 1630 1491 1442 1464 1511 1483 1418 1158 967 548 191 89 95 165 280 407 549
0 0 0 0 0 12 15 18 13 42 54 117 120 162 294 298 172 308 316 190 627 1372 872 514 1964 2075 1995 1740 1697 1755 1579 1378 1215 1235 1272 1440 1580 1544 1194 817 591 204 97 55 99 145 167 256 333
0 0 0 0 7 4 8 19 38 14 55 91 73 161 176 298 334 259 118 439 1027 1287 675 796 2159 2113 2083 1577 1581 1698 1537 1415 1153 1164 1286 1528 1696 1585 1318 941 647 92 46 65 87 80 49 74 158
0 0 0 0 0 1 7 1 0 28 47 68 76 186 228 240 261 213 530 629 1184 1030 534 1655 2314 2212 2112 1713 1542 1683 1435 1339 1242 1113 1287 1468 1662 1613 1287 770 374 99 80 96 90 49 19 33 112
0 0 0 0 1 3 0 0 7 11 44 364 142 263 311 500 735 958 853 788 870 1037 503 1244 2435 2339 2137 1674 1552 1689 1696 1709 1594 1235 1278 1376 1650 1655 1298 731 309 187 199 211 190 156 96 64 135
0 0 0 2 5 8 0 0 0 0 41 471 276 327 301 792 1060 1348 1010 828 696 963 547 1083 2270 2428 2173 2033 1899 1975 1975 1871 1730 1666 1592 1550 1641 1664 1325 822 440 383 415 419 359 315 284 209 330
0 0 0 0 3 1 0 0 0 7 78 352 393 452 319 553 1058 1454 1246 1111 982 942 846 1288 1389 2093 2333 2142 2086 2112 2098 2041 1945 1858 1823 1780 1530 1625 1493 1146 734 562 583 613 581 560 532 564 579
0 0 0 0 0 0 0 0 0 0 61 317 312 530 235 401 1224 1383 1236 1172 982 947 961 1111 1290 1473 1725 1599 2050 2189 2143 2102 2067 1845 1754 1864 1509 1458 1494 1690 1315 852 712 721 736 715 732 903 787
0 0 0 0 2 0 0 0 0 0 21 425 359 296 317 790 1106 1122 1077 1028 954 962 1020 1116 1175 1338 1511 1485 1544 2024 1719 1755 1772 1544 1708 1653 758 739 775 977 1139 1193 1154 1097 1077 1125 1232 1287 938
0 0 0 0 0 0 0 0 0 0 0 22 431 374 472 863 1062 1040 881 732 805 930 991 1086 1218 1300 1413 1378 1500 1473 970 1028 974 827 960 970 796 818 641 720 1064 1215 1230 1383 1654 1732 1642 1463 1084
0 0 0 0 0 0 0 0 0 0 0 5 1 352 592 775 1023 977 731 527 591 763 985 1085 1348 1446 1372 1320 1326 1361 1186 1050 1278 1289 1315 1110 879 830 707 638 647 785 1088 952 1176 1358 1572 1450 1068
0 0 0 0 0 0 0 0 0 0 0 0 127 526 635 705 842 880 745 620 513 541 790 998 1234 1330 1386 1215 1227 1077 1100 1026 1044 1062 1319 1239 1227 995 742 616 500 644 478 759 1230 1214 1316 1276 572
0 0 0 0 0 0 0 0 0 0 0 0 3 461 695 673 721 806 829 690 709 555 524 748 1067 1280 1271 1472 1065 1054 972 983 824 1165 1282 1236 1067 999 890 789 679 593 654 863 1087 1376 1541 1017 334
0 0 0 0 0 0 0 0 0 0 0 0 1 201 608 702 669 736 882 847 727 734 600 583 800 1185 1201 1235 1148 960 986 932 1095 1001 1128 1370 1224 1122 972 917 775 819 1203 1487 1449 1455 1284 723 333
0 0 0 0 0 0 0 0 0 0 0 0 0 99 440 774 749 813 973 1162 1153 930 805 639 817 946 1157 1021 1110 958 885 833 913 938 1118 1284 1317 1322 1211 866 747 690 617 463 509 577 494 304 258
0 0 0 0 0 0 0 0 0 0 0 0 22 319 335 471 687 826 1029 1241 1463 1360 1064 863 653 752 1109 965 992 803 748 871 884 914 992 1160 1216 1371 1312 914 574 245 64 64 275 214 105 240 232
0 0 0 0 0 0 0 0 0 0 0 0 0 351 600 626 631 717 974 1224 1466 1563 1523 1242 995 712 911 1214 913 907 1045 878 824 869 910 1000 1032 1063 1343 1069 454 410 73 58 48 7 0 99 141
0 0 0 0 0 0 0 0 0 0 0 0 0 0 218 671 839 934 1024 1170 1433 1599 1935 1963 1467 1534 1258 1025 905 719 664 746 843 901 937 1044 1172 1210 1301 1054 508 470 216 73 2 0 4 91 202
0 0 0 0 0 0 0 0 0 0 0 0 0 0 0 0 15 322 1253 1188 1395 1896 2369 2418 1904 1984 1463 1008 912 889 830 783 803 954 1078 1255 1443 1424 1342 762 576 535 395 65 22 0 59 134 382
0 0 0 0 0 0 0 0 0 0 0 6 17 24 38 57 1 0 254 1249 1282 1492 2262 2529 2323 2326 1720 1005 1119 1385 1098 944 940 1034 1242 1391 1216 1018 656 685 737 473 291 66 2 21 103 285 477
0 0 0 0 0 0 0 0 0 1 38 36 77 89 257 603 199 0 0 232 1060 1056 835 1659 2386 2570 2134 1886 1725 1603 1347 1343 1317 1413 1357 1372 1228 957 912 671 546 475 287 29 5 22 256 332 228
0 0 0 0 0 0 0 0 0 0 18 120 126 30 61 567 1496 617 22 0 241 859 738 850 1880 1939 1834 1996 1964 2303 1840 1782 1722 1926 1710 1676 1307 1036 843 531 395 293 241 61 70 101 142 187 6
0 0 0 0 0 0 0 0 0 0 3 21 128 133 96 580 1667 1942 1253 699 421 411 554 606 929 1460 2089 1735 1924 1785 1991 1850 1881 1567 1906 1785 1266 901 791 677 503 311 250 143 95 165 133 0 0
0 0 0 0 0 0 0 0 0 0 0 0 11 36 174 244 1078 1981 2308 2082 1683 956 626 645 996 1352 1480 1383 1462 1655 1721 1888 1635 1640 1667 1470 812 658 644 619 399 391 386 402 265 107 0 0 0
0 0 0 0 0 0 0 0 0 0 0 0 0 181 856 893 916 1071 940 2012 2412 2035 1803 1383 1335 1422 1460 1496 1662 1800 1999 2063 2153 2389 1171 796 499 557 603 527 459 524 506 280 94 1 0 0 0
0 0 0 0 0 0 0 0 0 0 0 0 460 911 983 973 996 1112 1336 1364 2140 2879 2748 2525 2553 2702 2792 1977 1549 1343 982 873 575 439 571 510 950 1238 1362 1280 614 663 577 225 25 0 0 0 0
0 0 0 0 0 0 0 0 0 0 0 0 390 781 782 787 896 1062 1241 1500 1847 2398 3003 3220 3255 2197 2075 1823 1193 832 557 160 277 365 728 1290 1664 1408 1449 643 746 318 152 54 0 0 0 0 0
0 0 0 0 0 0 0 0 0 0 8 189 362 337 244 312 558 861 1260 1612 1736 1963 2794 2632 2703 2640 2226 1855 1398 1002 568 190 8 65 93 861 920 836 724 433 475 216 76 0 0 0 0 0 0
0 0 0 0 0 0 0 0 0 23 12 6 2 116 90 48 342 934 1399 1599 1775 1792 2598 2402 2613 2609 2249 1628 1331 1079 641 189 0 1 53 665 521 512 563 375 158 23 0 0 0 0 0 0 9
0 0 0 0 0 0 0 0 0 0 0 0 0 80 75 65 190 810 965 1135 1571 1939 2227 1937 2327 2282 1981 1637 1267 581 257 0 39 234 315 384 301 358 192 68 33 0 0 0 0 0 0 0 0
CIN
0 0 0 0 0 -121 -33 -18 -203 -133 -49 -115 -146 -128 -89 -97 -63 -28 -455 -390 -330 -119 -112 -94 -25 -13 -21 -43 -52 -62 -64 -59 -54 -59 -57 -45 -42 -38 -36 -61 -69 -100 -164 -198 -204 -173 -161 -132 -111
0 0 0 0 0 -26 -25 -33 -82 -12 -48 -94 -108 -128 -113 -47 -173 -293 -362 -435 -258 -108 -150 -168 -19 -15 -22 -50 -60 -59 -78 -91 -102 -94 -73 -50 -44 -35 -61 -103 -116 -170 -198 -208 -213 -187 -176 -173 -153
0 0 0 0 -5 -19 -21 -32 -18 -17 -22 -18 -18 -119 -112 -80 -230 -283 -449 -385 -210 -103 -158 -142 -15 -15 -17 -65 -76 -71 -90 -105 -125 -105 -85 -57 -37 -35 -60 -83 -112 -208 -213 -234 -219 -224 -243 -232 -207
0 0 0 0 0 -5 -22 -8 0 -23 -129 -156 -40 -26 -186 -363 -270 -366 -380 -312 -160 -122 -164 -58 -16 -14 -27 -64 -85 -81 -109 -123 -116 -114 -92 -68 -42 -39 -59 -103 -158 -225 -221 -226 -224 -250 -275 -266 -224
0 0 0 0 -5 -18 0 0 -32 -24 -108 -80 -129 -92 -119 -304 -382 -331 -311 -265 -186 -136 -162 -92 -16 -30 -41 -84 -108 -103 -106 -93 -89 -125 -101 -81 -47 -38 -61 -114 -178 -210 -197 -195 -192 -218 -245 -251 -220
0 0 0 -5 -11 -11 0 0 0 0 -118 -90 -115 -114 -134 -390 -332 -305 -273 -218 -162 -128 -153 -106 -31 -28 -48 -71 -92 -84 -83 -78 -81 -73 -77 -64 -51 -35 -61 -113 -167 -181 -159 -150 -152 -172 -186 -208 -184
0 0 0 0 -9 -5 0 0 0 -32 -100 -54 -120 -71 -196 -334 -350 -278 -226 -184 -142 -119 -121 -93 -88 -39 -36 -69 -78 -75 -78 -70 -59 -54 -50 -39 -57 -36 -48 -77 -126 -152 -134 -131 -129 -133 -142 -137 -140
0 0 0 0 0 0 0 0 0 0 -20 -166 -138 -31 -69 -286 -363 -290 -236 -180 -145 -121 -103 -105 -94 -68 -50 -70 -68 -72 -75 -65 -45 -53 -54 -37 -56 -50 -38 -20 -51 -101 -118 -113 -108 -117 -111 -88 -101
0 0 0 0 -4 0 0 0 0 0 -104 -107 -123 -139 -44 -400 -398 -325 -276 -234 -169 -119 -104 -98 -109 -102 -89 -81 -93 -68 -96 -80 -64 -81 -54 -36 -120 -107 -107 -78 -69 -60 -62 -69 -66 -63 -51 -37 -68
0 0 0 0 0 0 0 0 0 0 0 -79 -108 -66 -442 -429 -392 -298 -265 -246 -222 -150 -133 -121 -121 -130 -107 -108 -97 -105 -144 -133 -139 -144 -127 -115 -121 -107 -133 -128 -100 -71 -71 -52 -21 -16 -13 -13 -13
0 0 0 0 0 0 0 0 0 0 0 -77 -10 -82 -381 -388 -362 -289 -263 -259 -242 -189 -170 -178 -153 -141 -147 -137 -127 -119 -135 -142 -115 -117 -114 -114 -122 -127 -142 -138 -131 -113 -94 -72 -52 -31 -4 -3 -18
0 0 0 0 0 0 0 0 0 0 0 0 -98 -190 -350 -379 -340 -295 -266 -180 -276 -278 -237 -219 -213 -190 -184 -166 -164 -165 -151 -169 -153 -150 -122 -115 -112 -135 -157 -149 -157 -147 -133 -93 -53 -31 -25 -27 -90
0 0 0 0 0 0 0 0 0 0 0 0 -17 -250 -259 -315 -336 -305 -283 -315 -168 -209 -324 -300 -278 -255 -237 -193 -227 -216 -218 -196 -196 -157 -146 -141 -155 -156 -144 -147 -153 -141 -108 -80 -49 -21 -11 -46 -79
0 0 0 0 0 0 0 0 0 0 0 0 -16 -194 -221 -282 -337 -319 -376 -372 -297 -172 -154 -234 -342 -326 -298 -288 -275 -275 -265 -247 -214 -216 -191 -163 -161 -160 -150 -148 -127 -78 -31 -12 -15 -13 -16 -48 -59
0 0 0 0 0 0 0 0 0 0 0 0 0 -203 -258 -294 -332 -329 -298 -354 -351 -386 -420 -443 -407 -380 -353 -365 -328 -344 -318 -301 -276 -259 -242 -215 -186 -167 -155 -132 -101 -95 -68 -52 -94 -41 -31 -24 -48
0 0 0 0 0 0 0 0 0 0 0 0 -113 -158 -246 -284 -305 -354 -309 -320 -329 -359 -425 -471 -155 -144 -402 -397 -383 -385 -384 -347 -318 -292 -272 -248 -216 -174 -143 -132 -134 -104 -156 -212 -50 -25 -20 -44 -56
0 0 0 0 0 0 0 0 0 0 0 0 0 -149 -168 -190 -250 -381 -384 -342 -347 -370 -363 -420 -482 -155 -427 -429 -416 -411 -372 -389 -349 -329 -307 -291 -243 -199 -133 -124 -65 -124 -61 -46 -33 -97 0 -82 -56
0 0 0 0 0 0 0 0 0 0 0 0 0 0 -177 -171 -156 -209 -414 -416 -325 -374 -390 -378 -440 -433 -467 -456 -479 -457 -447 -405 -387 -349 -316 -286 -226 -196 -157 -148 -75 -87 -28 -15 -3 0 -135 -77 -23
0 0 0 0 0 0 0 0 0 0 0 0 0 0 0 0 -263 -218 -253 -439 -446 -372 -401 -420 -471 -475 -492 -467 -281 -268 -400 -381 -368 -349 -338 -290 -224 -170 -107 -65 -66 -43 -30 0 -2 0 -145 -40 -4
0 0 0 0 0 0 0 0 0 0 0 -31 -33 -37 -153 -212 -126 0 -400 -471 -549 -480 -435 -393 -434 -451 -520 -521 -321 -336 -324 -336 -320 -332 -346 -292 -309 -281 -69 -63 -63 -89 -28 -8 -3 -124 -81 -4 -1
0 0 0 0 0 0 0 0 0 -6 -46 -58 -52 -58 -146 -346 -459 0 0 -496 -510 -578 -655 -471 -401 -401 -487 -478 -419 -421 -446 -450 -415 -385 -361 -338 -286 -279 -67 -71 -86 -42 -18 -33 -26 -76 -2 -2 -2
0 0 0 0 0 0 0 0 0 0 -10 -21 -22 -40 -48 -323 -276 -367 -138 0 -597 -549 -682 -699 -530 -500 -490 -465 -428 -395 -326 -272 -252 -252 -310 -270 -290 -124 -60 -73 -62 -41 -4 -14 -67 -10 -18 -2 -30
0 0 0 0 0 0 0 0 0 0 -70 -16 -15 -22 -19 -154 -261 -277 -405 -469 -547 -667 -714 -823 -741 -636 -448 -496 -445 -387 -340 -284 -271 -313 -230 -212 -247 -74 -53 -38 -45 -44 -36 -12 -22 0 -1 0 0
0 0 0 0 0 0 0 0 0 0 0 0 -11 -21 -24 -197 -94 -181 -238 -273 -386 -598 -102 -300 -733 -648 -556 -520 -398 -261 -201 -137 -142 -134 -145 -170 -55 -114 -84 -68 -62 -43 -17 0 0 -7 0 0 0
0 0 0 0 0 0 0 0 0 0 0 0 0 -315 -290 -317 -334 -159 -268 -260 -316 -381 -413 -498 -541 -464 -490 -431 -342 -229 -101 -16 0 0 -42 -53 -62 -36 -38 -45 -53 -12 -4 -8 -22 -13 0 0 0
0 0 0 0 0 0 0 0 0 0 0 0 -215 -224 -256 -324 -328 -330 -363 -364 -251 -256 -316 -345 -356 -292 -273 -363 -351 -230 -151 -380 -265 -197 -45 -27 -17 -2 -1 -2 -37 -11 -4 -23 -80 0 0 0 0
0 0 0 0 0 0 0 0 0 0 0 0 -237 -255 -297 -338 -341 -356 -352 -385 -371 -307 -260 -247 -234 -321 -308 -231 -133 -150 -88 -124 -403 -360 -199 -50 -1 -2 -1 -17 -7 -27 -56 -53 0 0 0 0 0
0 0 0 0 0 0 0 0 0 0 -121 -236 -242 -284 -343 -357 -334 -348 -347 -369 -363 -338 -220 -269 -217 -124 -83 -46 -62 -44 -40 -89 -336 -542 -361 -3 0 0 0 -10 -4 -28 -29 0 0 0 0 0 -1
0 0 0 0 0 0 0 0 0 -195 -215 -113 -284 -223 -219 -228 -326 -299 -279 -299 -317 -324 -208 -235 -175 -132 -94 -53 -47 -58 -72 -103 0 -210 -317 -1 0 0 -1 -9 -34 -19 0 0 0 0 0 0 -5
0 0 0 0 0 0 0 0 0 0 0 0 -32 -194 -177 -327 -317 -249 -273 -302 -290 -255 -206 -225 -132 -125 -106 -82 -81 -91 -89 0 -256 -180 -61 -6 0 0 -2 -37 -55 -1 0 0 0 0 0 0 0
Wind_Speed
nan nan nan nan nan nan nan nan nan nan 10 11 13 18 18 nan nan nan 8 19 21 29 26 27 25 26 25 27 26 25 25 22 20 17 14 11 9 8 8 9 11 13 15 nan nan 20 20 21 21
nan nan nan nan nan nan nan nan nan nan nan 9 14 19 21 16 12 12 18 23 26 28 29 26 25 25 27 26 25 24 25 22 18 15 11 9 7 7 8 10 12 15 nan nan nan 20 19 21 20
nan nan nan nan nan nan nan nan nan nan nan nan nan 15 14 18 20 19 18 27 28 25 28 27 25 22 24 24 24 23 22 20 17 13 10 8 6 6 8 9 12 nan nan nan nan nan nan nan 15
nan nan nan nan nan nan nan nan nan nan nan nan nan 16 14 14 15 23 28 32 29 24 26 27 25 22 23 24 23 21 19 17 14 11 9 8 6 7 7 10 11 nan nan nan nan nan nan nan 13
nan nan nan nan nan nan nan nan nan nan nan 18 28 19 17 19 23 32 34 32 26 21 25 25 23 21 21 23 22 19 15 12 10 10 9 7 6 7 8 9 11 13 12 11 10 11 nan nan 15
nan nan nan nan nan nan nan nan nan nan nan 17 25 22 21 25 31 37 34 30 22 24 24 21 19 16 16 18 18 15 12 9 7 8 8 8 9 9 9 11 10 10 9 8 8 10 13 14 14
nan nan nan nan nan nan nan nan nan nan nan 13 25 22 22 27 31 38 33 25 20 21 21 16 14 12 12 13 13 10 8 7 8 8 8 8 8 9 10 9 8 7 7 8 9 10 11 10 11
nan nan nan nan nan nan nan nan nan nan nan 17 23 24 19 20 34 35 33 23 22 23 18 13 9 9 8 7 7 8 8 8 8 8 8 7 8 8 8 5 7 7 8 8 9 9 10 12 15
nan nan nan nan nan nan nan nan nan nan nan 16 23 24 21 24 32 34 30 26 25 21 17 14 11 8 8 6 5 6 8 8 8 8 9 6 6 7 7 6 6 7 8 9 10 10 12 13 16
nan nan nan nan nan nan nan nan nan nan nan nan 26 25 27 26 32 34 32 29 30 26 20 16 13 11 9 6 7 7 7 7 7 7 6 7 6 5 5 5 8 9 10 11 12 12 13 15 14
nan nan nan nan nan nan nan nan nan nan nan nan nan 33 27 26 25 29 29 30 33 31 22 19 14 12 11 9 5 3 4 4 5 9 8 7 4 6 7 7 10 12 16 13 16 15 15 14 15
nan nan nan nan nan nan nan nan nan nan nan nan 20 34 27 22 25 29 29 28 27 24 25 21 18 13 13 8 7 7 8 8 8 8 9 6 6 8 9 10 13 14 15 15 14 14 15 16 18
nan nan nan nan nan nan nan nan nan nan nan nan nan 34 29 23 22 23 26 23 27 24 23 22 19 18 17 16 13 13 12 10 11 9 10 10 10 11 13 15 17 19 19 18 18 16 15 17 21
nan nan nan nan nan nan nan nan nan nan nan nan nan 26 25 25 20 18 19 20 26 29 26 23 23 19 16 14 15 11 11 12 11 11 13 15 12 14 17 19 21 24 25 24 23 26 24 19 19
nan nan nan nan nan nan nan nan nan nan nan nan nan nan 17 18 16 16 17 21 23 23 26 29 26 19 18 18 14 13 12 13 13 14 18 20 20 21 22 27 32 33 39 32 33 38 30 30 17
nan nan nan nan nan nan nan nan nan nan nan nan nan 3 5 10 12 11 14 16 17 16 18 21 23 26 26 16 11 10 12 13 13 13 15 20 21 24 27 36 48 33 nan nan 50 43 36 24 12
nan nan nan nan nan nan nan nan nan nan nan nan nan 4 6 5 9 7 11 12 13 15 17 16 22 26 27 24 18 14 14 16 15 15 17 20 21 25 31 42 46 50 nan nan nan nan nan nan 15
nan nan nan nan nan nan nan nan nan nan nan nan nan nan 9 11 17 12 11 10 11 13 16 18 17 21 22 20 17 13 15 16 16 17 19 21 25 31 40 48 53 55 57 nan nan nan nan nan 19
nan nan nan nan nan nan nan nan nan nan nan nan nan nan nan nan nan 10 18 20 11 12 12 21 26 23 26 25 11 11 17 20 21 23 23 26 30 35 40 53 50 53 60 nan nan nan nan 27 21
nan nan nan nan nan nan nan nan nan nan nan nan nan nan nan nan nan nan 10 16 18 11 16 18 25 26 28 34 34 23 20 23 25 27 28 32 35 44 55 60 57 60 63 nan nan nan 20 22 26
nan nan nan nan nan nan nan nan nan nan nan nan nan nan 15 12 13 nan nan 17 10 12 10 16 17 20 29 29 31 29 29 30 33 34 35 39 41 49 58 62 62 64 53 nan nan nan 33 30 33
nan nan nan nan nan nan nan nan nan nan nan 8 10 nan nan 14 13 12 nan nan 3 2 11 19 23 24 19 28 28 31 32 31 31 31 35 39 43 49 54 58 58 51 49 nan nan 38 39 33 nan
nan nan nan nan nan nan nan nan nan nan nan nan 17 19 nan 21 17 15 16 16 12 9 14 22 24 25 23 23 22 27 26 24 30 33 34 38 42 47 55 49 51 46 42 43 nan 33 37 nan nan
nan nan nan nan nan nan nan nan nan nan nan nan nan nan 27 26 24 23 24 26 25 19 11 20 21 21 23 25 24 21 21 24 28 33 36 39 42 49 50 39 40 44 52 49 40 39 nan nan nan
nan nan nan nan nan nan nan nan nan nan nan nan nan 23 28 27 30 28 29 22 31 21 17 22 26 27 28 33 42 39 44 42 36 34 37 37 53 35 30 33 37 40 46 45 nan nan nan nan nan
nan nan nan nan nan nan nan nan nan nan nan nan 15 16 22 23 23 26 26 22 12 21 23 27 31 39 46 52 49 49 56 53 42 39 35 40 25 31 36 36 41 41 43 33 nan nan nan nan nan
nan nan nan nan nan nan nan nan nan nan nan nan 21 18 20 22 23 25 24 26 24 24 32 29 37 47 49 49 47 48 53 61 55 57 40 60 44 46 47 40 44 42 38 nan nan nan nan nan nan
nan nan nan nan nan nan nan nan nan nan nan 22 23 22 22 22 25 31 32 32 29 28 29 38 42 45 43 46 49 51 55 57 nan nan nan 46 57 51 49 49 47 38 nan nan nan nan nan nan nan
nan nan nan nan nan nan nan nan nan nan nan nan nan 23 nan nan 26 26 28 33 31 28 27 38 45 45 43 42 44 45 49 54 nan nan nan 50 58 45 44 45 43 nan nan nan nan nan nan nan nan
nan nan nan nan nan nan nan nan nan nan nan nan nan nan nan nan 31 32 32 36 39 35 34 42 45 48 49 43 39 44 54 nan nan 49 45 43 48 34 35 nan nan nan nan nan nan nan nan nan nan
Wind_Direction
nan nan nan nan nan nan nan nan nan nan 61 23 3 10 13 nan nan nan 326 334 327 329 322 316 316 321 315 309 308 310 307 305 308 315 326 334 335 340 341 333 330 332 330 nan nan 322 318 319 316
nan nan nan nan nan nan nan nan nan nan nan 3 16 6 15 20 5 348 335 339 336 332 333 322 311 311 313 310 306 306 304 305 309 322 332 340 342 339 332 326 325 330 nan nan nan 324 319 316 313
nan nan nan nan nan nan nan nan nan nan nan nan nan 359 12 15 14 16 3 335 329 329 330 327 313 305 305 308 311 310 308 310 319 331 341 348 345 336 322 325 328 nan nan nan nan nan nan nan 302
nan nan nan nan nan nan nan nan nan nan nan nan nan 10 350 23 29 5 347 342 326 323 329 319 321 304 304 311 312 314 313 316 325 338 346 351 341 326 326 333 335 nan nan nan nan nan nan nan 300
nan nan nan nan nan nan nan nan nan nan nan 330 359 351 357 357 10 356 351 348 337 332 338 328 322 312 306 313 317 321 322 322 333 344 353 349 337 337 343 341 338 338 346 346 351 335 nan nan 303
nan nan nan nan nan nan nan nan nan nan nan 325 348 347 345 351 3 353 354 350 348 347 338 327 330 321 311 320 327 328 319 328 348 356 355 355 358 1 351 345 348 357 8 359 351 322 312 312 310
nan nan nan nan nan nan nan nan nan nan nan 316 330 341 344 5 358 353 354 348 347 346 340 333 342 342 329 333 333 330 334 345 5 11 13 17 17 3 354 357 2 14 9 354 335 321 320 319 311
nan nan nan nan nan nan nan nan nan nan nan 302 337 348 343 356 350 353 352 354 352 344 344 341 337 343 348 351 3 358 5 18 27 30 31 24 13 14 16 8 18 9 4 355 350 337 323 316 312
nan nan nan nan nan nan nan nan nan nan nan 319 335 344 329 342 345 353 359 360 3 355 359 3 3 15 25 34 26 42 47 46 43 32 27 22 42 32 26 3 328 358 354 345 341 332 325 324 324
nan nan nan nan nan nan nan nan nan nan nan nan 342 333 326 343 347 358 11 9 13 11 17 20 24 30 41 60 60 50 53 46 42 45 42 62 63 42 9 352 353 348 344 346 338 332 329 333 320
nan nan nan nan nan nan nan nan nan nan nan nan nan 338 335 348 359 3 17 21 16 21 26 30 35 45 46 54 54 67 59 58 69 69 74 67 33 3 351 328 319 323 331 323 324 327 326 319 309
nan nan nan nan nan nan nan nan nan nan nan nan 329 328 339 357 8 8 14 29 28 24 32 31 33 39 51 63 63 64 78 83 84 69 47 36 10 353 339 317 311 309 307 309 310 308 309 315 315
nan nan nan nan nan nan nan nan nan nan nan nan nan 322 345 3 17 17 10 34 34 34 32 33 29 41 50 57 64 63 61 56 54 40 25 11 356 336 320 315 312 305 294 291 288 285 290 306 314
nan nan nan nan nan nan nan nan nan nan nan nan nan 326 339 354 23 19 19 40 38 34 35 31 32 40 44 49 51 52 51 45 35 24 14 9 353 335 326 318 301 286 279 273 276 286 283 283 301
nan nan nan nan nan nan nan nan nan nan nan nan nan nan 327 13 25 29 26 31 36 34 29 29 37 27 37 39 41 40 35 22 16 12 9 359 344 332 318 304 293 282 278 269 282 270 266 273 286
nan nan nan nan nan nan nan nan nan nan nan nan nan 261 86 35 49 28 39 36 19 27 21 25 19 19 27 23 21 15 10 2 351 347 342 343 335 323 310 298 300 277 nan nan 292 290 264 252 294
nan nan nan nan nan nan nan nan nan nan nan nan nan 80 104 87 57 28 16 27 7 8 4 10 10 10 8 14 10 356 353 339 332 332 331 331 326 317 309 306 305 304 nan nan nan nan nan nan 331
nan nan nan nan nan nan nan nan nan nan nan nan nan nan 46 40 55 30 357 3 349 356 348 3 357 352 344 345 350 343 332 329 324 320 316 317 310 314 310 306 304 306 305 nan nan nan nan nan 329
nan nan nan nan nan nan nan nan nan nan nan nan nan nan nan nan nan 57 19 356 342 334 357 353 349 342 320 314 289 332 335 315 314 310 314 312 308 309 306 298 294 300 292 nan nan nan nan 348 319
nan nan nan nan nan nan nan nan nan nan nan nan nan nan nan nan nan nan 341 330 339 349 358 2 345 331 320 307 326 327 311 313 310 303 306 306 302 298 294 299 301 301 295 nan nan nan 344 337 322
nan nan nan nan nan nan nan nan nan nan nan nan nan nan 208 160 126 nan nan 320 316 353 335 330 322 317 319 315 307 312 306 299 297 299 297 295 297 295 298 303 299 299 295 nan nan nan 355 339 327
nan nan nan nan nan nan nan nan nan nan nan 270 225 nan nan 175 207 266 nan nan 223 199 310 309 313 318 300 312 310 316 307 306 301 298 293 293 295 294 297 298 308 297 300 nan nan 333 339 330 nan
nan nan nan nan nan nan nan nan nan nan nan nan 188 196 nan 215 240 251 268 253 224 258 295 313 311 320 304 298 307 311 305 293 287 289 293 290 287 291 290 300 301 308 307 323 nan 342 333 nan nan
nan nan nan nan nan nan nan nan nan nan nan nan nan nan 207 214 225 238 249 249 233 264 263 307 307 304 294 275 267 276 279 285 282 280 280 281 281 281 291 306 312 305 307 324 328 337 nan nan nan
nan nan nan nan nan nan nan nan nan nan nan nan nan 220 224 223 233 228 235 240 240 240 274 256 240 250 271 270 276 279 283 279 274 273 275 277 272 289 315 309 298 293 301 308 nan nan nan nan nan
nan nan nan nan nan nan nan nan nan nan nan nan 247 231 226 224 235 236 241 248 265 252 263 271 277 295 294 300 301 300 299 294 282 291 308 311 315 311 302 292 289 291 293 295 nan nan nan nan nan
nan nan nan nan nan nan nan nan nan nan nan nan 253 246 235 234 246 246 242 242 242 249 273 280 288 293 297 304 306 299 296 299 320 325 314 320 317 300 293 284 283 289 296 nan nan nan nan nan nan
nan nan nan nan nan nan nan nan nan nan nan 250 246 246 247 238 228 229 235 239 250 256 275 282 290 290 296 306 304 307 312 314 nan nan nan 308 312 293 278 279 283 289 nan nan nan nan nan nan nan
nan nan nan nan nan nan nan nan nan nan nan nan nan 256 nan nan 246 234 232 227 231 241 263 288 296 305 304 297 295 298 299 299 nan nan nan 319 320 281 275 283 295 nan nan nan nan nan nan nan nan
nan nan nan nan nan nan nan nan nan nan nan nan nan nan nan nan 257 260 255 250 252 254 265 286 294 299 301 301 302 306 298 nan nan 303 312 318 323 282 288 nan nan nan nan nan nan nan nan nan nan